Hourly Data Report for October 07, 2015

All times are specified in Local Standard Time (LST). Add 1 hour to adjust for Daylight Saving Time where and when it is observed.

KUGLUKTUK A
NUNAVUT

67°49'00.000" N
115°08'38.000" W
22.60 m
2300903
71938
YCO

Download Data

Hourly Data (October 2015)
Hourly Data Report for October 7, 2015
Temp Definition
°C
Dew Point Temp Definition
°C
Rel Hum Definition
%
Wind Dir Definition
10's deg

Wind Spd Definition
km/h
Visibility Definition
km
Stn Press Definition
kPa
Hmdx Definition


Wind Chill Definition


Weather Definition


TIME
00:00 Legend Double Dagger -8.6 -10.8 84 23 22 24.1 101.20   -16 LegendNANA
01:00 Legend Double Dagger -8.7 -10.5 87 22 20 24.1 101.19   -16 LegendNANA
02:00 Legend Double Dagger -8.1 -10.2 85 24 20 24.1 101.21   -15 Mainly Clear
03:00 Legend Double Dagger -9.2 -10.7 89 22 19 24.1 101.21   -17 LegendNANA
04:00 Legend Double Dagger -9.4 -10.9 89 23 19 24.1 101.20   -17 LegendNANA
05:00 Legend Double Dagger -8.7 -10.8 85 25 27 24.1 101.19   -17 Mainly Clear
06:00 Legend Double Dagger -9.3 -11.1 87 24 23 24.1 101.19   -18 LegendNANA
07:00 Legend Double Dagger -8.7 -10.8 85 24 26 24.1 101.18   -17 LegendNANA
08:00 Legend Double Dagger -7.8 -10.7 80 24 27 24.1 101.15   -16 Mostly Cloudy
09:00 Legend Double Dagger -7.2 -10.7 76 25 29 24.1 101.18   -16 LegendNANA
10:00 Legend Double Dagger -6.3 -10.0 75 25 25 24.1 101.20   -14 LegendNANA
11:00 Legend Double Dagger -4.8 -9.7 69 26 31 24.1 101.20   -13 Mainly Clear
12:00 Legend Double Dagger -3.0 -7.9 69 26 29 24.1 101.22   -10 LegendNANA
13:00 Legend Double Dagger -1.8 -7.3 66 27 29 24.1 101.24   -9 LegendNANA
14:00 Legend Double Dagger -1.2 -7.4 63 29 25 24.1 101.26   -7 Mostly Cloudy
15:00 Legend Double Dagger -1.5 -8.7 58 31 33 24.1 101.26   -9 LegendNANA
16:00 Legend Double Dagger -1.8 -9.2 57 30 36 24.1 101.29   -9 LegendNANA
17:00 Legend Double Dagger -2.7 -7.4 70 29 30 24.1 101.32   -10 Mostly Cloudy
18:00 Legend Double Dagger -2.9 -6.4 77 30 29 19.3 101.37   -10 LegendNANA
19:00 Legend Double Dagger -3.3 -7.3 74 30 25 24.1 101.42   -10 LegendNANA
20:00 Legend Double Dagger -3.9 -7.2 78 28 26 24.1 101.44   -11 Mostly Cloudy
21:00 Legend Double Dagger -4.6 -7.7 79 28 22 24.1 101.47   -11 LegendNANA
22:00 Legend Double Dagger -5.7 -8.3 82 27 23 24.1 101.52   -13 LegendNANA
23:00 Legend Double Dagger -5.9 -8.3 83 26 24 24.1 101.55   -13 Mostly Cloudy

Notes on Data Quality.

Legend

  • E = Estimated
  • M = Missing
  • NA = Not Available
  • ‡ = Partner data that is not subject to review by the National Climate Archives
Date modified: